Theta_e
354 353 335 334 338 339 340 340 341 338 327 328 330 331 332 333 336 337 340 339 329 332 334 334 331 328 328 330 335 338 341 348 348 347 345 345 342 339 337 335 332 330 331
355 350 330 334 337 339 340 342 341 340 328 329 330 331 331 333 334 336 332 328 330 334 334 331 331 333 335 338 343 344 348 346 346 344 343 341 339 337 335 333 332 330 330
354 348 336 333 336 339 341 342 342 339 328 330 330 330 331 332 332 333 329 329 333 333 333 330 335 339 340 343 345 346 347 346 343 340 341 339 336 334 333 332 331 330 329
354 348 341 332 337 339 340 341 341 336 330 330 331 331 331 332 332 334 331 329 332 332 331 331 338 340 341 344 346 347 346 343 340 342 340 337 334 333 332 331 330 329 329
354 348 346 330 336 339 340 340 340 338 333 333 335 332 332 332 333 335 333 329 332 332 330 333 339 340 341 344 347 347 346 342 339 340 337 334 332 331 331 330 329 329 328
354 351 342 324 329 337 339 340 340 339 338 339 337 333 332 332 332 335 333 328 332 333 328 335 339 341 341 346 349 348 346 340 341 339 336 331 329 331 331 329 329 328 327
353 353 346 326 324 331 338 338 339 339 339 340 337 334 332 332 332 335 329 329 332 333 327 337 340 341 344 347 348 347 344 340 341 338 335 331 328 330 330 328 328 327 327
354 354 353 336 327 325 329 334 337 337 338 337 336 333 331 331 335 334 327 329 331 333 327 338 340 343 346 346 347 346 343 339 340 337 335 331 329 330 329 328 327 326 327
355 355 355 351 343 329 325 326 328 333 335 335 334 331 331 333 337 334 326 328 331 332 328 338 340 344 346 347 347 346 342 340 341 337 334 331 330 330 328 327 327 326 326
356 355 354 354 352 349 345 327 326 329 330 330 330 330 330 336 338 333 327 328 330 331 328 337 340 342 345 346 346 345 342 340 341 334 334 328 330 329 328 327 326 326 325
355 355 355 355 353 352 350 348 330 327 329 328 330 330 335 340 342 339 336 332 328 331 327 335 339 341 344 346 346 345 342 341 338 336 331 328 330 329 328 326 326 325 323
353 357 357 357 356 354 352 352 348 345 340 340 339 343 339 338 342 340 340 330 328 331 329 331 337 340 344 348 347 346 345 341 337 336 332 329 330 329 328 326 326 324 324
338 355 357 360 359 356 354 353 352 349 346 344 342 343 341 341 343 340 341 337 337 333 337 332 338 342 346 349 350 348 345 342 338 336 331 329 330 329 327 326 325 324 324
329 338 351 358 360 358 356 354 354 352 350 348 346 346 343 343 341 340 339 338 337 337 337 338 336 340 346 349 350 349 346 344 340 336 333 329 330 330 328 326 325 327 323
326 330 340 351 357 358 359 355 354 354 351 350 348 346 343 343 340 341 341 340 337 336 337 338 335 338 343 348 351 350 348 346 342 336 334 329 329 330 328 326 326 326 323
322 327 334 346 353 354 357 356 355 355 353 351 349 348 348 342 342 340 342 342 339 337 336 336 337 336 340 345 349 350 349 346 344 338 334 331 327 329 328 326 325 325 324
323 327 333 341 350 352 354 354 354 354 353 351 349 349 348 346 342 342 340 340 341 340 338 337 338 339 335 341 347 349 349 347 342 339 335 334 329 329 328 327 325 325 324
326 327 334 333 341 351 354 355 354 353 352 351 348 348 349 347 342 346 343 342 341 342 341 339 339 339 337 336 342 348 348 347 342 339 336 335 332 330 328 327 325 326 324
326 327 335 339 342 352 354 352 353 353 352 351 350 349 349 345 345 345 341 343 344 343 342 341 341 341 340 339 341 349 348 346 344 338 337 335 334 330 331 327 326 326 324
326 327 333 340 345 351 349 351 348 345 348 350 349 349 349 349 348 346 342 340 344 344 343 343 342 342 342 340 340 345 344 345 343 341 338 336 335 331 330 331 327 326 322
326 329 336 341 347 349 346 343 338 336 337 337 337 342 345 346 347 347 345 343 345 343 344 344 344 344 344 343 345 344 345 345 344 343 339 336 336 333 330 331 331 329 326
327 328 335 341 346 348 343 342 337 333 333 332 334 339 343 343 345 345 345 346 343 341 344 345 344 343 342 345 345 345 347 345 344 342 338 337 337 333 330 331 331 330 329
328 328 332 341 344 347 343 346 348 345 345 340 335 337 340 345 345 346 345 344 345 346 343 342 344 344 341 344 346 344 346 347 346 343 341 340 338 336 332 331 331 331 329
326 328 328 335 342 345 347 342 343 337 332 328 329 330 339 343 343 343 345 344 345 341 342 346 343 340 341 343 345 345 345 345 347 349 342 341 339 337 335 332 332 331 329
328 327 327 328 332 338 345 344 345 344 335 336 336 336 337 339 340 340 341 343 345 344 341 343 344 338 336 338 343 344 344 345 345 348 349 342 340 338 337 334 332 330 329
326 329 330 331 332 333 333 336 337 336 336 332 333 333 331 331 333 337 340 341 343 344 342 342 344 345 339 338 342 343 343 344 343 342 348 346 341 337 335 333 333 330 329
Wind_Speed
11 17 20 20 20 21 23 24 24 24 25 27 26 24 22 20 19 17 17 16 15 13 12 11 9 8 8 9 10 10 12 13 13 15 13 12 11 10 13 12 11 12 13
19 18 21 21 20 18 21 25 26 25 26 27 25 23 22 20 17 17 16 16 14 13 11 10 9 9 8 8 9 11 13 10 15 14 11 12 13 15 14 14 13 12 13
20 19 21 22 21 19 19 24 27 26 26 26 24 23 21 19 17 16 16 15 13 12 11 10 9 9 8 8 8 12 12 11 12 16 13 11 12 13 13 13 12 12 12
19 19 19 23 22 20 20 24 25 25 25 25 23 22 20 18 16 15 15 14 12 11 10 10 8 7 7 8 11 13 12 10 13 11 10 11 11 12 12 12 11 11 10
18 17 17 24 22 20 20 24 24 24 24 24 22 21 19 17 15 14 14 13 12 11 9 9 8 6 6 8 12 13 11 11 14 10 11 11 10 10 11 10 10 11 12
17 16 18 21 22 21 20 21 23 24 23 23 21 19 17 16 15 14 12 12 11 10 9 8 7 5 6 9 12 11 10 11 11 9 11 12 10 11 10 11 10 11 12
16 15 16 18 18 20 21 20 20 21 22 21 19 18 17 15 14 13 12 12 11 9 9 7 6 7 7 10 10 9 10 11 6 9 10 10 10 11 10 10 11 10 11
15 14 14 16 14 16 18 19 20 19 19 19 18 17 17 15 13 13 12 11 11 9 9 7 5 7 8 10 9 9 9 10 8 9 9 9 11 10 10 10 10 10 11
13 13 14 14 14 14 14 15 17 18 18 18 18 17 15 14 13 12 12 11 10 9 9 7 6 6 8 9 10 8 8 10 5 7 8 8 10 10 9 9 10 11 12
11 12 12 13 13 13 12 14 15 16 17 17 18 17 15 14 12 11 11 11 11 10 9 8 7 8 8 8 9 7 8 9 4 7 8 9 9 10 9 9 10 11 12
9 11 11 12 12 12 12 12 14 15 16 17 16 17 15 11 11 10 11 12 11 10 10 9 8 8 9 8 8 6 7 4 5 6 7 9 9 9 9 9 10 11 12
10 11 11 11 11 12 11 11 13 12 13 14 14 13 15 13 11 11 11 12 11 11 10 10 10 9 9 9 8 8 5 6 6 5 7 9 10 9 9 10 10 11 11
9 11 11 11 12 12 11 11 12 13 14 15 16 15 15 13 12 13 10 10 10 11 9 10 10 10 10 9 11 9 7 7 7 6 8 9 10 9 9 10 8 8 10
8 7 9 12 13 13 12 12 12 13 14 14 15 17 15 15 13 12 12 11 11 11 11 11 12 11 10 10 8 7 7 7 7 7 8 10 10 9 9 8 6 8 10
9 9 9 11 12 11 13 11 11 12 13 13 14 16 17 16 14 13 12 11 11 11 11 12 11 12 12 11 10 9 8 8 8 10 9 11 11 10 9 7 6 6 8
14 12 10 11 11 11 12 12 10 11 11 12 13 14 17 16 15 13 13 12 11 12 11 12 12 12 13 12 12 10 9 9 10 11 10 10 11 10 9 7 7 5 6
15 12 13 12 12 12 12 12 11 11 10 10 11 12 16 16 15 14 13 13 13 12 12 11 11 12 12 13 12 11 11 11 13 13 11 10 11 11 10 8 7 5 5
15 15 12 12 13 12 10 10 9 9 9 8 8 10 13 17 19 12 14 14 14 14 13 13 13 13 14 14 15 13 13 13 14 17 13 12 11 10 10 10 8 6 4
16 16 14 13 13 12 11 8 9 8 8 8 9 9 12 13 14 16 14 12 12 15 15 14 14 14 14 14 15 11 11 13 16 16 17 14 13 11 9 12 10 7 4
13 15 15 14 13 13 11 11 9 8 8 8 7 7 10 12 13 15 14 14 12 17 18 16 14 14 14 14 14 11 11 12 15 17 17 16 14 13 11 10 9 9 6
14 15 18 17 16 15 14 13 11 10 8 8 8 8 9 10 11 12 14 16 17 20 17 15 15 15 15 13 10 10 9 12 15 16 16 17 15 15 14 12 10 9 10
16 18 17 18 17 17 15 13 10 9 9 9 9 10 11 12 12 12 13 13 17 19 14 16 17 16 16 14 14 9 5 9 15 16 17 17 16 15 15 15 12 9 7
16 18 20 19 18 17 16 13 11 9 8 9 10 10 11 12 13 14 14 14 13 13 16 17 16 16 14 14 19 13 5 8 13 16 19 18 17 17 15 15 14 12 10
15 14 16 17 18 16 15 16 15 14 13 11 9 7 7 9 12 14 15 16 16 14 15 17 18 22 22 19 17 21 17 14 4 5 13 19 18 18 18 16 15 14 12
9 11 14 14 13 14 15 14 15 15 15 12 10 9 10 10 12 13 15 16 17 16 16 16 18 23 24 25 21 17 18 18 14 9 5 10 15 18 17 19 15 14 13
10 10 11 12 11 12 12 12 11 9 10 9 6 6 8 8 9 10 11 15 17 18 19 17 17 21 24 26 22 22 18 18 19 16 8 10 12 15 15 16 17 15 13
Wind_Direction
170 166 172 172 169 168 176 180 173 165 161 157 155 151 148 145 144 140 138 135 130 125 122 120 115 109 103 104 106 105 100 101 100 94 89 80 71 59 61 63 60 53 52
155 162 170 171 168 170 176 180 177 169 166 161 159 155 152 148 146 143 139 137 134 129 123 117 113 110 108 108 107 110 109 107 103 95 75 70 69 69 65 58 63 60 56
153 159 164 171 168 168 175 175 174 171 168 165 162 159 155 152 148 146 141 140 137 131 127 122 118 112 107 105 107 121 124 120 110 90 83 60 64 70 68 65 63 61 57
154 157 163 172 169 167 169 174 175 173 171 170 166 163 160 155 152 150 144 144 142 135 131 126 121 112 110 117 118 132 135 115 95 73 59 61 63 71 70 68 63 60 58
153 155 165 169 171 171 169 173 176 177 175 174 171 168 164 159 155 154 150 149 147 139 135 130 123 117 117 130 138 143 141 112 91 76 62 59 62 71 70 66 62 56 53
152 155 170 169 173 175 175 173 179 180 181 180 176 174 170 165 163 159 158 152 149 146 141 135 126 117 121 136 151 151 136 102 93 77 68 61 66 78 72 67 64 52 50
149 152 159 167 171 179 183 182 182 185 187 186 183 181 176 172 170 164 163 158 154 152 143 140 128 123 134 141 153 147 130 110 88 77 71 68 72 80 77 70 63 49 46
146 149 161 170 171 178 186 190 192 194 194 195 192 188 183 179 174 170 170 165 158 155 146 142 133 131 146 150 148 146 136 117 94 85 79 76 85 83 72 66 62 53 48
150 155 160 167 176 181 187 194 198 199 200 201 197 193 189 185 180 175 174 171 164 158 152 147 139 133 147 154 151 150 137 122 100 92 77 74 91 86 76 69 63 59 51
161 163 167 172 177 179 188 196 199 202 203 201 200 197 194 193 189 183 179 180 172 165 161 158 154 144 151 159 160 156 143 123 99 94 81 90 99 91 82 74 70 60 55
172 176 181 181 183 187 187 197 198 204 206 206 205 203 199 195 200 202 191 198 180 175 173 170 168 165 164 170 175 171 148 147 135 104 104 106 104 96 89 81 79 66 54
192 196 194 194 189 190 192 194 193 200 204 206 208 208 202 207 202 199 196 197 189 185 184 183 185 180 170 179 189 186 194 162 146 129 126 118 113 107 95 90 84 69 58
197 202 206 198 198 200 201 200 202 204 204 208 206 207 208 209 208 202 201 196 194 196 197 196 200 196 206 192 176 198 191 180 159 141 153 135 125 118 108 97 90 71 53
220 212 212 205 204 207 207 207 210 210 208 209 209 206 206 208 207 207 209 205 200 201 205 204 208 212 211 215 205 202 196 193 176 160 166 146 137 131 119 111 97 86 59
249 222 208 204 208 207 207 212 216 215 214 214 212 211 207 207 209 209 210 210 208 207 207 209 216 212 214 216 219 215 206 203 184 161 166 161 150 147 134 125 112 89 66
230 225 215 213 212 209 210 215 220 217 213 215 216 217 213 208 202 213 213 217 217 215 213 215 214 214 217 219 219 217 215 203 194 172 167 174 164 157 152 144 134 99 75
229 228 220 219 216 213 212 216 219 222 215 215 216 219 211 207 212 212 224 227 223 220 216 217 217 217 219 222 229 213 214 209 198 182 180 180 182 174 171 167 151 133 100
231 222 225 225 219 211 206 209 212 213 215 216 217 216 215 215 209 209 225 233 235 228 222 219 219 220 222 224 226 220 212 205 197 192 186 187 189 188 191 188 175 165 134
229 218 217 216 214 196 191 198 199 205 214 215 218 206 207 215 214 221 224 236 243 240 232 225 222 227 228 230 229 223 211 202 198 196 195 196 198 194 201 192 191 183 167
223 215 214 209 202 193 186 188 193 203 211 212 213 215 211 210 219 220 230 235 230 248 239 229 229 226 236 225 225 210 211 207 200 200 198 200 204 201 200 192 197 209 197
213 207 206 201 196 189 190 194 195 199 202 206 209 212 221 220 218 221 232 223 226 234 241 231 230 226 227 227 228 217 209 211 204 207 204 202 207 207 201 211 215 204 193
214 209 206 205 198 197 197 204 209 206 210 218 220 225 228 231 228 225 229 234 240 237 232 232 226 236 224 221 218 216 209 211 218 212 209 212 213 210 207 216 219 213 206
213 205 202 202 202 204 205 200 205 211 227 230 232 240 245 246 242 239 237 235 236 232 232 220 217 216 230 232 224 228 225 235 190 207 213 218 215 214 214 217 218 217 210
206 200 196 198 204 206 206 211 216 222 228 225 238 255 255 255 250 248 247 244 238 234 229 224 215 208 212 224 220 229 248 290 183 198 213 218 218 216 219 214 215 215 207
169 185 192 194 197 203 206 212 214 226 232 242 250 258 265 262 257 255 251 248 243 238 238 233 224 217 220 228 229 221 225 240 239 247 210 201 209 220 217 216 217 211 203
132 135 148 161 171 184 192 203 209 220 228 230 228 254 265 268 269 269 262 253 248 246 242 240 236 233 229 228 234 233 220 233 236 238 239 215 214 204 211 211 208 209 198